UAE7MY OMDB-YPPH

Flight info

Callsign UAE7MY
Flight time N/A
Altitude 35000
Route ANVIX L223 TARDI N629 GIDAN P570 KITAL L894 GOLEM/N0496F370 L894 BIBGO DCT LAVOX DCT KADAP DCT 0500S08730E/N0487F390 DCT BEBIM DCT 15S100E 18S105E DCT WONSA DCT CAR B469 TOPIR/N0480F400 L514 AVPAL Q38 JULIM
Aircraft A359/H-SDE2E3GHIJ3J4J5LM1ORWXY/LB1D1

Departure

Time 2026-04-30 22:13
Airport Dubai International Airport (OMDB)

Arrival

Time N/A
Airport Perth International Airport (YPPH)
Time Latitude Longitude Altitude Speed Heading
2026-04-30 22:09 25.25042 55.37240 29 ft 15 kts 122°
2026-04-30 22:09 25.24988 55.37337 30 ft 15 kts 122°
2026-04-30 22:09 25.24934 55.37433 30 ft 15 kts 122°
2026-04-30 22:09 25.24879 55.37530 29 ft 15 kts 122°
2026-04-30 22:10 25.24823 55.37632 29 ft 16 kts 122°
2026-04-30 22:10 25.24765 55.37734 29 ft 16 kts 122°
2026-04-30 22:10 25.24707 55.37837 28 ft 16 kts 122°
2026-04-30 22:10 25.24650 55.37938 29 ft 14 kts 122°
2026-04-30 22:11 25.24614 55.38025 29 ft 5 kts 70°
2026-04-30 22:11 25.24652 55.38059 30 ft 10 kts 36°
2026-04-30 22:11 25.24712 55.38101 32 ft 10 kts 32°
2026-04-30 22:12 25.24747 55.38118 32 ft 2 kts 351°
2026-04-30 22:12 25.24763 55.38094 32 ft 5 kts 305°
2026-04-30 22:12 25.24826 55.37984 31 ft 41 kts 302°
2026-04-30 22:12 25.25075 55.37539 33 ft 94 kts 302°
2026-04-30 22:13 25.25502 55.36773 30 ft 139 kts 301°
2026-04-30 22:13 25.26074 55.35748 47 ft 176 kts 300°
2026-04-30 22:13 25.26695 55.34678 641 ft 162 kts 301°
2026-04-30 22:13 25.27313 55.33645 1074 ft 161 kts 303°
2026-04-30 22:14 25.27944 55.32569 1344 ft 172 kts 302°
2026-04-30 22:14 25.28582 55.31373 1478 ft 188 kts 298°
2026-04-30 22:14 25.29190 55.30040 1661 ft 201 kts 291°
2026-04-30 22:14 25.29230 55.28457 1785 ft 220 kts 253°
2026-04-30 22:15 25.28576 55.26877 2058 ft 229 kts 246°
2026-04-30 22:15 25.27836 55.25316 2538 ft 231 kts 245°
2026-04-30 22:15 25.27092 55.23718 2933 ft 235 kts 247°
2026-04-30 22:15 25.26391 55.22072 3362 ft 238 kts 247°
2026-04-30 22:16 25.25694 55.20417 3866 ft 238 kts 247°
2026-04-30 22:16 25.24977 55.18769 4355 ft 239 kts 243°
2026-04-30 22:17 25.20530 55.16770 5618 ft 259 kts 175°
2026-04-30 22:17 25.18814 55.17419 6011 ft 268 kts 148°
2026-04-30 22:17 25.16563 55.20888 6531 ft 293 kts 118°
2026-04-30 22:18 25.15950 55.22228 6759 ft 297 kts 118°
2026-04-30 22:18 25.14037 55.26336 7663 ft 303 kts 119°
2026-04-30 22:19 25.12057 55.30502 8647 ft 309 kts 120°
2026-04-30 22:19 25.10716 55.33292 9297 ft 313 kts 120°
2026-04-30 22:19 25.09147 55.36956 10122 ft 318 kts 116°
2026-04-30 22:20 25.08250 55.39197 10632 ft 320 kts 116°
2026-04-30 22:20 25.06436 55.43730 11537 ft 331 kts 115°
2026-04-30 22:20 25.05529 55.46112 11764 ft 344 kts 115°
2026-04-30 22:21 25.04599 55.48556 11995 ft 356 kts 115°
2026-04-30 22:21 25.03606 55.51151 12223 ft 369 kts 116°
2026-04-30 22:21 25.02593 55.53789 12452 ft 379 kts 115°
2026-04-30 22:21 25.01420 55.56424 12684 ft 387 kts 122°
2026-04-30 22:22 25.00070 55.58976 12937 ft 394 kts 124°
2026-04-30 22:22 24.98654 55.61584 13330 ft 398 kts 124°
2026-04-30 22:22 24.97228 55.64210 13742 ft 401 kts 124°
2026-04-30 22:22 24.95793 55.66858 14096 ft 404 kts 124°
2026-04-30 22:23 24.94334 55.69510 14460 ft 406 kts 126°
2026-04-30 22:23 24.92722 55.72068 14827 ft 407 kts 129°
2026-04-30 22:23 24.91049 55.74593 15186 ft 410 kts 129°
2026-04-30 22:23 24.89357 55.77136 15546 ft 412 kts 129°
2026-04-30 22:24 24.87658 55.79691 15920 ft 415 kts 129°
2026-04-30 22:24 24.85948 55.82265 16262 ft 418 kts 129°
2026-04-30 22:24 24.84233 55.84848 16651 ft 419 kts 129°
2026-04-30 22:24 24.82503 55.87441 17017 ft 421 kts 129°
2026-04-30 22:25 24.80744 55.90032 17334 ft 424 kts 129°
2026-04-30 22:25 24.78964 55.92634 17650 ft 427 kts 130°
2026-04-30 22:25 24.77021 55.95096 18043 ft 426 kts 136°
2026-04-30 22:25 24.74925 55.97401 18370 ft 427 kts 140°
2026-04-30 22:26 24.70525 56.01841 18980 ft 431 kts 141°
2026-04-30 22:26 24.68296 56.04057 19310 ft 433 kts 141°
2026-04-30 22:26 24.66065 56.06296 19627 ft 435 kts 141°
2026-04-30 22:27 24.63834 56.08559 19972 ft 437 kts 141°
2026-04-30 22:27 24.61633 56.10809 20306 ft 439 kts 141°
2026-04-30 22:27 24.57210 56.15502 20969 ft 446 kts 136°
2026-04-30 22:28 24.53046 56.20628 21611 ft 452 kts 134°
2026-04-30 22:28 24.50983 56.23249 21925 ft 455 kts 134°
2026-04-30 22:29 24.44748 56.31213 22935 ft 462 kts 134°
2026-04-30 22:29 24.42651 56.33887 23311 ft 463 kts 134°
2026-04-30 22:30 24.34129 56.44706 24428 ft 473 kts 134°
2026-04-30 22:31 24.27680 56.53020 25253 ft 483 kts 131°
2026-04-30 22:32 24.21780 56.62097 26073 ft 492 kts 128°
2026-04-30 22:32 24.17811 56.68244 26661 ft 496 kts 129°
2026-04-30 22:33 24.11696 56.77480 27471 ft 503 kts 130°
2026-04-30 22:33 24.07552 56.83685 28027 ft 507 kts 130°
2026-04-30 22:34 24.01312 56.93030 28847 ft 512 kts 130°
2026-04-30 22:35 23.97082 56.99344 29306 ft 517 kts 130°
2026-04-30 22:36 23.88513 57.12112 30159 ft 524 kts 130°
2026-04-30 22:36 23.86357 57.15329 30343 ft 525 kts 130°
2026-04-30 22:37 23.79850 57.25004 30924 ft 528 kts 130°
2026-04-30 22:37 23.77671 57.28240 31088 ft 530 kts 130°
2026-04-30 22:37 23.73327 57.34685 31441 ft 532 kts 130°
2026-04-30 22:38 23.68886 57.41121 31917 ft 529 kts 132°
2026-04-30 22:38 23.64299 57.47359 32459 ft 525 kts 132°
2026-04-30 22:39 23.62010 57.50450 32709 ft 523 kts 132°
2026-04-30 22:39 23.55192 57.59731 33357 ft 522 kts 132°
2026-04-30 22:40 23.48425 57.69003 34006 ft 519 kts 131°
2026-04-30 22:41 23.41695 57.78210 34488 ft 517 kts 132°
2026-04-30 22:41 23.37207 57.84325 34756 ft 516 kts 132°
2026-04-30 22:43 23.23659 58.02766 34855 ft 523 kts 131°
2026-04-30 22:44 23.15428 58.15851 34852 ft 524 kts 127°
2026-04-30 22:45 23.02955 58.35360 34853 ft 520 kts 135°
2026-04-30 22:46 22.97526 58.40355 34859 ft 509 kts 150°
2026-04-30 22:47 22.85552 58.48378 34853 ft 507 kts 153°
2026-04-30 22:48 22.73464 58.56311 34854 ft 508 kts 153°
2026-04-30 22:49 22.55374 58.68263 34843 ft 508 kts 153°
2026-04-30 22:51 22.37273 58.80176 34845 ft 508 kts 153°
2026-04-30 22:52 22.28258 58.86097 34843 ft 508 kts 153°
2026-04-30 22:53 22.16166 58.94033 34837 ft 509 kts 153°
2026-04-30 22:53 22.07094 58.99965 34830 ft 508 kts 153°
2026-04-30 22:55 21.92005 59.09821 34823 ft 505 kts 153°
2026-04-30 22:56 21.79991 59.17649 34816 ft 505 kts 153°
2026-04-30 22:57 21.64987 59.27405 34808 ft 505 kts 153°
2026-04-30 22:58 21.52944 59.35219 34808 ft 506 kts 153°
2026-04-30 22:59 21.34868 59.46930 34799 ft 506 kts 153°